Regional Weather Roundup
Issued by NWS

Home | Current Version | Previous Version | Text Only | Print | Product List | Glossary Off
Versions: 1 2 3 4 5 6 7 8 9 10 11 12 13 14 15 16 17 18 19 20 21 22 23 24 25 26 27 28 29 30 31 32 33 34 35 36 37 38 39 40 41 42 43 44 45 46 47 48 49 50

000
ASUS45 KSLC 211210
RWRUT

UTAH REGIONAL WEATHER ROUNDUP
NATIONAL WEATHER SERVICE SALT LAKE CITY UT
600 AM MDT TUE APR 21 2015

UTZ001>011-023>025-211300-

NORTHERN UTAH

CITY           SKY/WX    TMP DP  RH WIND       PRES   REMARKS
BRIGHAM CITY   CLEAR     39  32  77 CALM      29.89R
HILL AFB       CLEAR     46  25  44 E18       29.88S
LOGAN          CLEAR     34  31  88 W3        29.89S
OGDEN          CLEAR     46  26  45 S9        29.87S
PROVO AIRPORT  CLEAR     39  27  60 E3        29.92S
SALT LAKE CITY PTCLDY    46  30  53 SE7       29.88S
VERNAL         CLEAR     38  25  59 W5        29.94R WCI  34
WENDOVER       PTCLDY    43  19  39 NE8       29.87S
HEBER CITY     CLEAR     28  23  80 CALM      29.97S
WEST JORDAN    CLEAR     45  28  53 S6        29.90S

$$

UTZ012>022-026-027-211300-

SOUTHERN/CENTRAL UTAH

CITY           SKY/WX    TMP DP  RH WIND       PRES   REMARKS
BLANDING       CLEAR     44  25  48 NE5       30.02S
BRYCE CANYON   PTCLDY    29  16  58 W6        30.03S WCI  23
CEDAR CITY     PTCLDY    46  17  31 SE8       29.92F
DELTA          PTCLDY    39  22  51 NE5       29.90S
HANKSVILLE     CLEAR     37  28  70 S3        29.92R
MILFORD        CLEAR     37  17  44 SW12      29.91S WCI  29
MOAB/CYNLANDS  CLEAR     46  35  65 SE7       29.89R
PRICE          PTCLDY    36  16  44 N3        29.93S
ST GEORGE      SUNNY     55  18  22 CALM      29.85S
KANAB          CLEAR     34  19  55 NE5       29.98S WCI  30

$$

REGIONAL REPORTS     COLORADO/ARIZONA

CITY           SKY/WX    TMP DP  RH WIND       PRES   REMARKS
CRAIG, CO      CLEAR     27  24  89 CALM      29.98S
GRAND JUNCTION CLEAR     41  35  79 E10       29.93S
RIFLE          MOCLDY    38  32  79 CALM      29.99S
MONTROSE       CLEAR     36  30  79 SE8       29.99R WCI  30
CORTEZ         CLEAR     27  20  75 E3        29.98S
PAGE, AZ       CLEAR     53  18  25 SE3       29.89R
GRAND CANYON   PTCLDY    26  14  60 CALM      30.02S
KINGMAN        CLEAR     54  21  27 SE9       29.86F
FLAGSTAFF      PTCLDY    34  18  52 SW5       30.04R WCI  30

$$

REGIONAL REPORTS    NEVADA/IDAHO/WYOMING

CITY           SKY/WX    TMP DP  RH WIND       PRES   REMARKS
LAS VEGAS, NV  PTCLDY    69  19  15 S10       29.74S
ELY            PTCLDY    28   7  41 S10       29.96S WCI  19
ELKO           PTCLDY    35  17  47 E6        29.92R WCI  30
POCATELLO, ID  CLEAR     37  28  70 CALM      29.88S
BURLEY         CLEAR     41  26  55 S6        29.85S
EVANSTON, WY   PTCLDY    35  21  56 SE8       29.97F WCI  29
ROCK SPRINGS   PTCLDY    34  19  54 CALM      29.97S

$$



USA.gov is the U.S. government's official web portal to all federal, state and local government web resources and services.